Theta_e
297 297 296 297 299 298 298 299 300 300 299 299 301 304 307 317 312 309 306 307 304 297 295 296 297 295 294 296 298 293 297 296 296 301 305 303 303 299 300 299 299 301 299 297 293 298 309 291 290 297 296 290 290 290
297 296 296 297 297 298 299 300 300 301 299 297 300 302 304 310 313 309 305 304 302 297 295 294 295 295 296 296 293 291 301 295 299 301 299 297 300 294 299 304 294 302 302 305 303 305 293 291 292 290 290 291 290 290
297 296 296 296 296 298 298 299 300 301 300 297 298 301 302 305 311 309 305 302 300 293 293 294 295 295 296 296 295 296 292 295 297 297 296 297 303 296 301 299 298 294 293 298 299 296 294 291 290 289 289 290 289 289
297 296 295 295 296 297 298 298 299 300 300 298 298 300 301 304 307 310 305 304 302 299 301 296 294 294 295 296 297 298 296 296 294 291 294 297 305 294 298 298 299 295 293 295 295 293 291 291 290 290 290 290 289 288
296 296 295 295 296 296 296 297 298 298 299 299 297 296 301 303 305 311 307 304 303 306 299 293 292 294 296 295 297 298 298 295 294 295 295 300 292 293 287 292 295 291 296 299 303 297 298 295 291 290 290 290 289 288
295 294 294 296 295 295 295 295 296 298 298 298 298 298 299 302 304 304 300 308 303 302 296 297 291 292 295 297 296 295 293 290 289 294 292 290 287 294 296 299 299 292 291 294 299 290 289 289 290 290 291 289 288 288
294 295 295 295 294 294 294 295 295 298 298 298 297 299 297 300 301 302 305 302 302 303 297 293 292 291 292 292 291 292 290 288 292 288 292 290 291 291 293 299 302 293 291 289 289 290 290 290 290 290 290 289 290 288
295 295 293 293 293 293 294 294 294 297 297 297 297 300 296 301 305 305 305 302 299 302 296 292 289 292 291 292 293 289 290 289 289 288 287 291 288 288 294 296 297 291 289 289 290 289 291 290 290 289 289 289 287 286
293 293 293 293 293 293 293 294 294 294 297 297 299 297 299 302 301 302 300 299 299 301 299 294 299 299 290 288 289 291 289 293 288 290 291 291 292 297 300 302 295 290 292 291 288 288 289 290 290 288 289 288 287 286
293 293 292 292 292 292 293 293 294 295 296 297 298 300 298 302 301 299 299 300 299 296 290 295 291 294 291 290 288 292 288 291 295 294 287 290 295 294 297 299 297 291 291 290 290 289 289 290 290 289 289 289 288 286
293 292 291 291 291 291 292 293 293 295 296 298 299 298 299 300 301 300 299 300 300 301 291 291 291 292 289 295 294 291 291 282 296 297 295 296 295 296 300 300 295 292 291 292 293 294 292 292 290 289 288 288 287 286
292 291 291 291 291 291 291 292 293 294 295 295 296 299 300 297 296 300 302 300 301 303 292 293 292 292 289 290 294 289 293 288 300 288 290 300 299 300 300 303 295 292 291 292 291 291 291 291 290 290 289 288 287 287
292 291 291 290 290 291 291 291 292 293 294 294 298 295 296 297 300 303 305 305 304 295 290 292 294 290 289 290 291 292 293 297 290 291 299 301 301 299 296 295 293 292 291 292 290 291 290 290 290 289 288 288 288 287
291 290 290 290 290 291 291 291 291 292 293 295 297 299 298 300 301 304 302 298 298 293 292 296 292 296 293 295 291 299 288 289 290 293 300 299 300 300 293 293 291 291 291 290 290 290 289 289 289 288 288 288 287 286
290 290 290 290 290 291 291 291 292 293 293 295 296 299 298 298 300 298 293 291 292 294 297 294 294 295 294 293 292 289 289 294 295 303 301 300 302 295 292 291 291 291 290 291 290 290 289 289 288 288 288 288 288 286
290 290 290 290 290 291 291 291 291 292 293 294 296 298 300 298 297 299 294 293 292 296 298 299 299 300 299 295 288 298 299 299 302 295 299 300 297 292 290 290 291 291 291 291 290 289 289 288 288 288 287 287 287 286
290 290 290 290 291 290 291 291 291 292 294 294 296 295 298 301 301 297 296 295 294 299 304 301 305 308 291 291 293 296 299 302 301 300 297 297 296 292 289 290 290 290 290 290 289 289 288 288 288 287 286 286 287 286
290 290 290 290 290 290 291 291 291 294 296 294 296 294 293 300 302 299 295 297 299 298 299 304 296 292 298 301 301 296 295 295 294 294 295 292 290 289 290 289 290 290 290 289 289 289 288 288 288 288 287 286 286 286
290 290 289 290 290 291 291 292 290 296 295 293 292 295 293 294 300 301 298 298 297 297 297 298 302 300 302 298 301 299 297 298 300 295 291 290 290 289 290 290 290 290 289 289 288 289 288 289 289 288 287 286 285 285
291 290 290 290 290 289 291 292 291 292 296 295 294 295 294 293 299 300 299 296 299 299 302 304 305 300 302 300 297 300 300 296 293 293 290 289 289 289 290 290 290 290 289 289 289 289 288 289 288 288 287 286 285 284
291 290 290 290 290 290 289 291 292 293 295 293 285 291 292 290 292 298 300 296 298 300 302 301 296 304 304 297 297 297 297 295 297 298 295 289 289 290 290 290 290 290 289 289 289 289 289 289 288 288 288 287 286 285
290 289 289 289 289 290 290 288 291 292 294 296 296 288 292 294 295 294 296 299 300 300 299 300 300 299 301 301 298 298 298 297 295 294 292 291 289 289 290 290 290 290 290 290 290 290 289 288 288 288 288 287 286 286
289 289 289 288 289 289 288 289 293 292 291 290 297 296 295 288 291 293 299 299 299 298 301 301 300 299 297 298 297 297 298 296 294 292 292 291 291 291 291 290 291 291 290 290 290 290 289 288 288 288 287 286 285 285
289 287 288 287 288 286 283 291 293 293 294 295 295 292 296 292 294 295 296 298 299 297 297 299 300 301 301 298 299 304 301 296 293 292 292 291 290 290 291 291 291 291 291 290 290 289 288 288 289 288 287 286 285 286
287 287 287 285 275 289 287 289 292 292 294 294 293 292 288 295 299 298 296 297 298 299 298 298 299 300 302 303 304 305 302 296 293 293 291 292 291 291 290 291 291 291 290 290 289 289 288 289 288 288 287 286 286 286
287 281 285 282 277 283 284 287 288 288 287 284 291 286 292 290 291 294 298 299 297 299 299 299 300 301 302 302 303 304 304 296 296 293 291 292 292 292 291 290 290 290 290 290 290 288 288 289 289 288 287 287 287 287
283 279 279 274 278 281 285 287 287 288 289 291 288 292 292 295 294 294 295 297 299 298 301 302 302 302 302 302 303 303 305 297 296 298 297 293 292 292 292 291 291 291 290 290 290 289 289 289 288 288 287 287 287 287
282 278 282 283 286 286 286 284 286 288 287 289 290 291 292 292 294 294 294 298 299 300 300 302 303 303 303 303 303 303 299 296 295 295 293 293 292 292 292 292 292 292 290 290 290 289 289 289 289 288 288 288 287 287
284 281 285 285 283 283 285 286 287 288 288 289 291 292 291 290 291 293 294 295 297 297 299 299 301 301 300 298 300 300 297 293 293 292 293 292 290 291 293 292 292 292 290 290 290 290 289 289 289 289 288 288 287 287
283 284 284 285 285 286 286 286 287 287 288 289 289 289 290 288 291 293 292 292 293 294 296 297 300 299 298 297 296 296 296 294 295 297 298 294 293 293 292 292 291 291 290 290 290 289 289 289 289 289 288 288 287 286
282 284 281 286 287 287 287 287 287 287 287 288 289 290 290 290 290 291 291 291 292 293 295 296 297 299 299 298 296 293 293 294 295 295 296 297 297 294 292 291 291 291 290 290 290 290 290 289 289 288 288 287 287 286
281 285 287 285 287 287 282 284 287 287 288 288 288 289 289 288 290 291 293 293 292 292 294 296 297 298 300 300 300 300 299 299 298 297 296 295 295 294 293 291 291 290 290 290 290 290 290 289 289 288 288 287 287 286
282 286 287 287 286 283 286 285 281 283 287 288 289 289 290 290 291 291 293 294 294 294 295 296 297 297 297 297 298 299 300 299 299 298 298 297 295 294 292 291 291 290 290 290 290 290 289 290 289 288 288 287 287 286
Wind_Speed
12 11 11 13 14 14 16 15 15 15 17 20 19 23 26 9 13 12 5 10 3 3 2 1 2 5 3 3 5 6 5 2 2 2 3 4 3 5 2 4 6 7 7 4 3 1 5 7 5 6 3 2 6 5
15 12 10 11 12 13 14 15 15 14 19 20 23 20 24 14 12 13 5 8 7 8 3 3 3 1 2 4 6 1 2 5 6 4 1 3 3 2 3 3 2 2 5 4 8 5 1 12 2 3 4 5 6 7
16 14 11 10 11 13 13 12 14 13 14 15 19 21 21 23 8 15 5 14 5 4 3 2 1 2 2 3 4 5 3 4 4 2 4 2 3 4 4 6 3 3 3 2 2 2 5 11 3 4 5 5 6 5
16 14 12 10 10 10 12 12 12 13 14 18 15 20 19 23 15 18 13 14 4 6 4 2 1 2 3 2 2 2 8 8 9 3 3 3 2 3 3 1 2 3 6 5 6 4 0 6 8 9 7 7 8 12
16 14 12 12 10 8 10 13 13 13 14 16 18 18 19 20 20 15 16 11 12 2 4 2 1 3 3 4 4 7 16 4 2 2 2 3 3 4 1 2 3 6 8 6 6 7 4 4 17 14 12 12 13 10
15 13 12 10 7 9 9 10 13 13 13 16 14 18 17 18 20 7 2 18 18 6 4 2 3 4 5 10 13 10 6 3 2 3 2 1 0 3 3 4 6 9 6 5 3 6 3 3 16 20 13 13 17 16
15 14 12 8 7 7 10 12 14 17 10 13 13 17 16 18 15 8 4 5 22 16 3 3 1 2 2 3 3 3 5 2 2 2 2 3 2 3 3 4 6 10 8 5 8 11 5 7 8 18 17 20 21 18
15 12 9 7 6 6 8 11 13 14 13 17 14 12 14 11 13 7 18 17 23 7 5 4 1 1 5 1 2 2 1 2 4 3 1 3 1 2 4 9 4 5 8 7 12 1 3 12 20 15 21 23 13 10
16 12 11 8 6 6 8 11 13 15 15 16 13 5 1 3 3 7 3 13 11 4 5 3 7 5 4 1 2 2 2 1 1 1 3 4 3 6 10 11 11 13 14 13 8 6 11 12 17 15 19 16 13 10
16 13 10 8 7 6 8 9 12 14 14 13 2 3 2 4 3 10 4 2 3 2 2 3 2 4 4 2 1 3 1 3 2 3 3 3 5 6 8 12 8 15 12 21 12 7 7 14 18 19 17 21 21 20
18 15 11 8 6 6 6 9 10 16 8 1 1 1 1 5 2 2 3 3 2 3 3 4 4 6 4 4 4 1 3 0 1 3 4 3 5 7 16 18 12 17 20 24 3 17 22 25 23 19 17 21 23 25
18 15 12 9 7 6 6 7 9 9 6 9 14 5 3 1 1 3 5 3 4 5 2 7 5 4 3 2 4 2 4 2 6 3 2 4 5 11 12 19 17 19 19 20 13 18 23 26 29 28 27 25 27 29
19 16 13 10 7 6 6 7 8 7 12 8 4 1 3 3 4 5 6 4 3 3 4 3 4 5 3 2 4 3 4 6 4 2 5 5 5 6 5 5 10 16 23 22 12 23 25 27 29 31 28 27 32 30
20 17 14 10 9 8 7 7 6 6 3 3 3 5 5 5 6 5 5 3 4 5 7 4 3 4 3 3 4 6 1 3 1 2 9 4 8 7 8 8 14 18 20 19 16 25 27 30 29 29 31 35 34 31
20 18 14 12 10 9 8 7 3 2 2 3 4 6 8 5 4 3 2 2 2 4 10 4 2 3 2 5 1 6 3 7 8 7 4 6 10 6 10 12 14 18 18 18 24 25 27 30 30 28 32 36 35 34
20 16 16 13 11 10 10 7 6 5 4 4 6 4 2 3 3 3 4 3 4 6 2 3 4 4 4 6 5 11 8 8 5 4 6 4 6 8 10 13 14 15 20 22 27 29 30 31 32 31 33 35 37 37
19 15 16 13 11 10 11 6 4 5 6 6 5 4 3 3 4 4 4 4 6 6 4 4 5 8 4 3 5 6 6 5 5 4 4 5 5 6 9 12 12 21 22 25 28 29 29 30 32 33 28 30 36 35
15 15 14 12 10 11 12 10 5 5 10 5 4 6 3 4 5 2 2 4 6 4 2 5 5 3 6 8 5 4 5 3 2 2 3 3 7 12 14 14 19 23 25 27 29 30 32 33 31 28 31 34 33 33
19 16 12 10 8 5 2 4 6 4 7 4 4 3 2 3 7 5 3 4 1 3 2 1 2 4 6 3 4 4 4 5 5 4 2 4 8 12 17 21 24 25 27 30 32 30 31 34 32 32 33 35 28 30
16 15 12 10 8 4 4 4 4 3 3 4 3 3 4 3 4 4 4 3 5 2 2 3 5 4 3 2 3 2 3 2 3 3 1 2 9 14 17 21 20 27 27 27 26 29 28 25 27 31 34 34 32 30
14 13 9 9 5 11 3 3 3 2 2 3 2 4 3 2 2 3 6 3 2 3 3 4 4 6 4 2 3 3 2 4 6 3 4 6 8 14 17 19 25 26 24 25 22 26 32 29 32 33 35 31 32 33
8 11 7 8 3 4 5 7 3 2 2 3 2 1 3 2 3 4 4 2 4 4 4 4 6 3 7 5 2 3 6 5 1 4 7 18 11 10 12 21 23 12 23 27 30 29 30 31 34 34 34 31 33 35
11 10 4 4 4 4 5 5 4 4 2 2 2 2 2 2 4 2 3 5 5 5 9 8 8 11 6 12 13 10 10 9 4 4 6 5 5 15 22 25 27 23 14 26 30 31 31 34 35 35 33 34 35 32
10 6 5 5 7 4 1 4 3 3 2 3 3 2 3 3 2 3 4 5 7 3 6 11 8 8 9 9 9 14 14 12 7 8 15 12 6 8 17 23 27 27 26 27 29 31 32 35 36 35 35 35 34 33
4 6 5 6 4 5 4 3 3 3 4 3 4 4 3 2 3 4 3 3 7 9 9 9 9 10 10 11 9 10 16 18 6 6 14 17 14 15 15 18 20 24 30 33 32 33 34 36 36 36 36 36 35 33
6 6 11 8 4 5 5 3 5 6 5 5 7 3 3 4 4 5 3 4 5 8 9 9 10 9 10 12 11 10 13 23 19 5 13 26 26 19 11 12 11 19 34 37 36 35 35 37 38 39 37 38 39 37
5 7 4 2 3 2 1 1 1 2 4 5 4 5 5 6 6 4 3 3 4 4 15 17 12 9 10 10 19 23 22 25 23 16 18 29 29 30 31 23 18 26 32 38 43 47 44 42 41 41 38 37 40 41
6 6 8 6 5 4 7 4 5 5 4 3 1 3 5 8 5 4 5 4 3 4 6 2 9 12 12 15 16 16 13 17 16 10 11 17 23 28 30 28 27 31 41 40 39 40 44 46 45 44 43 41 39 40
4 4 6 10 7 4 7 7 7 6 4 5 6 7 3 5 6 10 16 13 15 8 2 3 4 11 12 14 23 15 14 21 12 9 14 8 6 20 33 32 31 35 38 38 41 43 43 42 45 47 46 45 43 41
6 7 6 7 9 10 8 7 5 7 9 11 10 8 9 6 17 30 20 10 5 5 12 13 13 11 5 5 5 10 18 24 25 15 11 12 11 17 31 33 37 37 37 38 38 35 36 34 33 33 34 34 36 37
4 5 3 10 13 14 15 12 11 12 9 10 10 11 12 12 16 27 27 27 22 21 17 7 10 16 12 9 7 6 8 23 28 29 27 21 15 26 30 32 36 38 37 38 41 44 45 43 43 42 42 41 41 41
5 9 9 9 12 14 1 3 8 11 13 12 13 11 10 5 10 8 20 24 16 6 14 15 6 7 19 21 21 24 25 22 20 24 27 27 21 26 31 31 32 35 40 42 40 41 47 46 45 45 44 44 45 44
3 7 8 8 7 5 6 6 3 8 11 13 12 14 13 14 14 8 14 21 24 20 19 22 26 28 28 29 25 23 25 28 29 28 28 25 28 30 34 33 33 33 36 41 42 42 44 43 41 44 44 45 46 45
Wind_Direction
252 261 278 297 305 309 312 317 317 318 327 315 315 341 1 204 223 215 229 196 183 116 275 221 179 133 106 147 143 174 94 305 60 124 147 193 165 211 154 169 179 170 148 186 94 54 303 155 89 178 164 78 140 144
250 255 269 286 307 314 316 320 321 314 327 318 325 313 350 21 215 214 226 191 159 86 140 122 95 137 152 172 124 183 138 156 173 102 182 115 148 152 156 234 33 231 187 181 188 216 107 193 85 168 148 146 164 145
241 246 255 274 291 305 313 326 330 330 324 312 307 323 322 357 206 213 219 172 134 102 30 93 114 68 113 126 152 124 281 170 165 141 152 150 162 137 164 234 160 240 160 197 22 188 208 199 177 161 171 149 146 143
227 234 248 262 281 301 312 322 336 337 331 328 319 332 319 343 351 211 208 202 182 115 121 236 69 109 344 158 162 91 138 111 105 82 114 141 155 162 194 174 192 173 134 176 265 245 239 233 192 169 157 129 129 143
219 226 243 256 267 289 312 321 330 327 333 336 333 305 314 327 352 207 219 226 214 147 163 172 97 29 28 152 127 123 132 106 123 85 105 195 114 130 25 78 240 191 178 173 221 188 174 197 174 158 152 158 155 145
217 231 237 242 264 288 306 323 324 320 330 338 328 329 318 302 352 171 353 229 218 190 104 119 348 24 71 118 107 88 69 79 94 127 169 126 280 119 142 203 246 195 194 182 197 124 58 67 148 155 154 156 160 156
212 221 224 232 264 290 297 315 325 327 318 328 329 322 322 295 305 251 238 325 196 187 101 76 28 340 92 99 59 58 46 75 90 117 139 137 170 140 144 210 240 192 182 152 140 120 69 187 175 161 147 157 156 161
203 206 203 229 254 283 311 323 325 331 330 326 315 304 324 298 313 260 257 271 179 148 79 121 265 356 188 132 104 13 72 36 13 141 67 151 81 92 242 233 222 157 140 160 183 326 169 133 139 143 145 146 142 153
196 205 210 224 255 290 305 318 325 324 321 322 318 311 199 195 286 311 295 174 204 213 162 143 147 193 143 108 85 52 58 81 325 169 223 124 180 220 218 208 183 182 181 175 150 119 134 144 155 152 152 159 155 164
199 201 209 229 247 281 311 318 325 326 315 312 281 221 242 164 309 117 50 4 301 319 58 122 120 146 133 177 335 97 20 168 195 235 105 179 251 259 241 215 198 173 156 144 128 146 150 159 167 167 173 171 167 168
199 204 212 220 248 273 300 332 326 326 334 292 288 243 315 99 98 53 143 162 273 261 172 156 158 137 205 132 154 214 171 200 167 238 164 242 262 233 220 214 190 178 172 180 157 173 178 170 167 165 168 170 163 167
197 205 211 219 239 275 293 312 328 323 309 314 300 247 148 118 130 182 186 165 210 234 182 144 169 136 156 130 107 214 136 79 232 136 102 264 241 226 206 211 182 177 177 181 169 155 163 163 168 165 165 166 166 173
195 207 210 217 234 259 285 305 308 327 320 305 249 173 164 176 196 194 194 197 206 174 196 189 121 129 117 89 79 121 130 201 118 113 226 235 264 259 202 138 159 168 170 169 148 153 154 153 161 161 161 166 166 166
196 203 209 217 233 254 268 285 304 340 333 252 210 222 211 187 197 192 209 205 187 157 154 173 105 141 147 118 142 127 213 87 139 225 232 224 232 235 164 156 148 169 170 165 158 154 154 156 160 160 162 165 162 163
198 204 210 221 233 249 264 251 259 283 210 263 246 224 209 215 205 163 151 77 241 168 141 115 59 99 116 107 103 105 106 238 205 219 214 226 228 168 174 170 169 165 166 165 157 157 158 156 156 153 161 165 166 167
197 206 215 223 236 253 251 242 279 197 229 230 243 253 270 181 227 179 162 199 196 175 92 55 141 153 195 130 134 208 163 210 227 211 226 194 194 182 169 168 169 164 166 161 158 157 156 158 159 154 157 165 170 170
199 212 217 222 230 247 258 228 216 217 219 220 239 243 232 308 260 217 165 183 154 159 182 151 198 199 106 141 228 191 198 194 216 225 218 219 204 163 151 155 158 159 160 159 153 154 154 153 147 147 154 166 170 174
201 207 204 214 233 261 259 214 215 236 212 210 219 253 229 187 279 232 253 174 143 198 150 214 127 164 201 194 233 205 232 269 300 285 272 186 145 146 154 156 159 161 157 155 154 151 151 152 157 161 158 163 165 172
200 201 207 221 234 206 234 225 209 255 213 196 207 173 216 247 198 248 181 197 109 107 117 149 196 210 235 216 190 193 215 193 194 192 187 166 161 158 152 152 155 155 157 157 156 160 164 165 164 160 161 162 162 166
203 203 209 223 209 165 248 246 225 261 232 225 213 204 187 226 246 182 169 168 187 146 210 236 215 218 210 233 216 293 338 34 103 114 138 181 161 157 160 158 161 159 152 151 151 151 153 155 160 162 164 164 161 168
194 199 207 218 208 204 243 284 262 243 270 238 262 153 213 135 159 193 193 145 148 199 233 251 260 280 242 279 320 309 192 165 208 253 182 165 171 157 156 161 157 161 159 159 160 166 167 170 165 165 164 168 172 174
176 179 166 186 172 224 232 230 239 284 270 313 277 157 154 232 240 180 153 188 204 197 216 257 282 291 301 322 75 320 271 248 160 79 93 136 158 169 174 168 162 169 174 174 171 169 171 166 165 165 164 166 171 174
160 157 145 165 205 234 252 181 210 227 232 250 273 221 252 261 215 101 237 195 193 186 220 237 253 269 266 293 307 290 232 209 188 157 163 206 186 171 166 171 178 171 170 178 174 170 165 164 163 162 162 162 167 168
157 146 178 211 202 253 218 214 213 195 221 220 219 254 238 228 202 201 229 222 239 222 192 207 215 248 261 258 261 268 267 207 158 163 171 153 161 185 187 180 180 182 181 166 166 164 160 163 163 163 164 164 167 167
139 200 190 226 269 216 218 271 189 195 213 176 207 256 251 201 222 236 223 246 210 214 197 198 207 219 233 247 255 261 243 193 173 184 182 171 150 151 167 184 188 181 169 163 167 164 163 166 167 168 169 169 169 170
195 221 184 193 243 156 201 195 204 214 200 198 223 242 189 187 202 234 207 229 213 244 231 196 199 219 238 240 250 242 240 208 198 180 188 180 176 176 173 175 182 187 181 175 170 169 168 171 171 171 173 174 172 169
205 229 219 211 145 119 182 300 172 191 201 222 219 200 188 218 231 242 254 224 206 222 233 222 213 226 236 247 248 252 257 205 197 217 216 193 190 187 182 183 197 196 185 182 176 174 173 174 175 175 173 173 175 175
198 174 181 204 195 209 219 216 179 210 230 230 185 252 214 200 206 210 218 257 255 301 324 255 215 245 276 277 275 278 218 200 198 177 163 185 195 193 194 199 194 190 184 187 186 181 179 177 175 175 174 174 174 178
185 205 176 216 206 204 209 212 219 216 205 207 246 258 263 272 295 298 292 270 277 244 204 146 225 262 257 289 301 285 218 170 166 169 194 193 184 206 198 193 191 188 183 185 186 182 182 179 177 177 176 174 173 173
223 180 195 215 210 223 221 197 203 214 225 236 248 264 273 272 263 267 264 257 244 257 268 266 257 218 207 170 247 247 227 210 211 219 223 217 210 196 187 184 180 179 181 181 176 172 169 167 166 166 166 164 167 170
164 160 189 226 235 238 239 245 246 247 251 249 246 247 257 265 273 269 263 264 268 269 260 241 233 225 216 212 196 204 229 224 224 231 244 266 241 201 190 188 182 177 178 179 175 173 169 168 169 170 171 170 172 172
183 200 217 224 238 238 119 195 232 240 247 242 247 244 249 250 254 268 255 244 223 208 219 224 220 223 246 252 255 252 247 254 231 237 239 238 237 202 192 187 186 181 176 177 180 180 177 175 173 174 174 173 173 174
193 214 217 225 238 213 222 209 239 251 250 246 247 239 233 231 239 247 257 238 223 223 224 226 231 238 241 247 249 257 258 252 250 236 232 226 222 198 183 183 184 187 188 180 178 180 182 182 178 175 174 173 174 173